星链-341997(STARLINK-341997)

导读

STARLINK-35197是美国SpaceX公司星链(Starlink)星座的一颗卫星,于2025年10月26日发射升空。星链计划旨在构建全球卫星互联网星座,为全球多地提供宽带互联网接入服务,该卫星入轨后将进一步扩充星链星座规模,提升星座覆盖密度与服务能力,助力全球网络覆盖目标实现。

Basic Information
目录编号:
66193
目录名称:
STARLINK-35197
国际标识:
2025-243S
轨道中心:
EARTH
卫星名称:
星链-341997
卫星全名:
星链-341997(STARLINK-341997)
卫星状态:
在轨 (已飞行322 天)
发射日期:
2025-10-26 UTC
国别 :
美国 (US)
星等 :
--
This satellite is enrolled in the Space Conjunction Data Service (SCDS) and the current flight risk assessment level is: No High Risk
Orbit Information
数据来源 国际轨道数据
星历时间: 2026-09-13T06:50:38+0800
6小时前
查看轨道信息
半长轴: 6840.825km
偏心率: 0.0001352
轨道倾角: 53.160°
近地点辐角 119.927°
升交点赤经 94.784°
平近点角 240.187°
近地点: 461.763km
远地点: 463.613km
周期: 93.847分钟
每日圈数: 15.344054
Detailed Information
固有亮度:
5
最大亮度:
2.5
卫星平台:
Starlink V1.0
覆盖范围:
全球
运营商:
太空探索技术公司
运营商所在国:
美国
制造商(研发单位):
太空探索技术公司
制造商所在国:
美国
使用方式:
暂无
Satellite Introduction
Starlink 计划是 SpaceX 推出的全球卫星互联网项目,通过发射低轨道卫星,为全球尤其是偏远地区提供高速、低延迟的互联网服务。自 2019 年起,Starlink 已部署数千颗卫星,旨在缩小全球数字鸿沟,推动互联网普及。该项目还为军事、航空等行业提供通信支持,带来广泛经济效益。
2D Orbit Map
3D Orbit Map
Orbit Altitude Analysis Chart
Orbit Inclination Analysis Chart
Orbit Comprehensive Analysis Chart
View Comprehensive Chart
Conjunction Data List
Event ID Objects TCA Miss Dist (km) Collision Risk Probability Collision Risk Index (CRI) Action
CDM_260912-033703-168606-619322
2026-09-12T
03:37:27+0000
1.647 km
极远距离
4.668692E-6 低风险 0.48
CDM_260906-042706-268006-619321
2026-09-06T
04:27:07+0000
1.895 km
极远距离
3.254757E-6 低风险 0.45
CDM_260906-143806-265606-619322
2026-09-06T
14:38:02+0000
2.644 km
极远距离
1.569229E-6 低风险 0.39
Miss Distance Evolution Trend with All Objects
Collision Probability Evolution Trend with All Objects